Time,TemperatureF,DewpointF,PressureIn,WindDirection,WindDirectionDegrees,WindSpeedMPH,WindSpeedGustMPH,Humidity,HourlyPrecipIn,Conditions,Clouds,dailyrainin,SolarRadiationWatts/m^2,SoftwareType,DateUTC
2013-05-26 00:01:00,70.3,65.9,29.95,SE,132,3.0,3.6,86,0.00,SCT,,0.00,0.0,WeatherDisplay:10.37,2013-05-26 05:01:00,
2013-05-26 00:06:00,70.2,65.8,29.95,ESE,119,5.0,5.0,86,0.00,SCT,,0.00,0.0,WeatherDisplay:10.37,2013-05-26 05:06:00,
2013-05-26 00:11:00,70.1,65.7,29.95,ESE,105,4.6,4.6,86,0.00,SCT,,0.00,0.0,WeatherDisplay:10.37,2013-05-26 05:11:00,
2013-05-26 00:16:00,70.0,65.6,29.95,South,169,7.0,7.0,86,0.00,SCT,,0.00,0.0,WeatherDisplay:10.37,2013-05-26 05:16:00,
2013-05-26 00:21:00,69.9,65.5,29.95,SSE,158,8.1,8.1,86,0.00,SCT,,0.00,0.0,WeatherDisplay:10.37,2013-05-26 05:21:00,
2013-05-26 00:26:00,69.8,65.4,29.95,ESE,106,5.8,5.8,86,0.00,SCT,,0.00,0.0,WeatherDisplay:10.37,2013-05-26 05:26:00,
2013-05-26 00:31:00,69.6,65.2,29.95,SE,134,2.3,2.3,86,0.00,SCT,,0.00,0.0,WeatherDisplay:10.37,2013-05-26 05:31:00,
2013-05-26 00:36:00,69.5,65.1,29.95,ESE,112,13.0,13.0,86,0.00,SCT,,0.00,0.0,WeatherDisplay:10.37,2013-05-26 05:36:00,
2013-05-26 00:41:00,69.4,65.0,29.94,SSE,151,3.5,3.5,86,0.00,SCT,,0.00,0.0,WeatherDisplay:10.37,2013-05-26 05:41:00,
2013-05-26 00:46:00,69.2,64.5,29.94,ENE,67,6.9,6.9,85,0.00,SCT,,0.00,0.0,WeatherDisplay:10.37,2013-05-26 05:46:00,
2013-05-26 00:51:00,69.1,64.4,29.94,SE,144,6.9,6.9,85,0.00,SCT,,0.00,0.0,WeatherDisplay:10.37,2013-05-26 05:51:00,
2013-05-26 00:56:00,69.0,64.3,29.94,SE,126,9.2,9.2,85,0.00,SCT,,0.00,0.0,WeatherDisplay:10.37,2013-05-26 05:56:00,
2013-05-26 01:01:00,68.9,64.2,29.94,SSE,163,11.5,11.5,85,0.00,SCT,,0.00,0.0,WeatherDisplay:10.37,2013-05-26 06:01:00,
2013-05-26 01:06:00,68.8,64.1,29.94,ESE,115,6.9,6.9,85,0.00,SCT,,0.00,0.0,WeatherDisplay:10.37,2013-05-26 06:06:00,
2013-05-26 01:11:00,68.7,64.0,29.94,SE,126,2.3,2.3,85,0.00,SCT,,0.00,0.0,WeatherDisplay:10.37,2013-05-26 06:11:00,
2013-05-26 01:16:00,68.6,63.9,29.94,SSE,147,5.8,5.8,85,0.00,SCT,,0.00,0.0,WeatherDisplay:10.37,2013-05-26 06:16:00,
2013-05-26 01:21:00,68.5,63.8,29.94,SSE,147,8.1,8.1,85,0.00,SCT,,0.00,0.0,WeatherDisplay:10.37,2013-05-26 06:21:00,
2013-05-26 01:26:00,68.4,63.7,29.94,SSE,153,8.1,8.1,85,0.00,SCT,,0.00,0.0,WeatherDisplay:10.37,2013-05-26 06:26:00,
2013-05-26 01:31:00,68.4,64.0,29.94,SSW,202,6.9,6.9,86,0.00,SCT,,0.00,0.0,WeatherDisplay:10.37,2013-05-26 06:31:00,
2013-05-26 01:36:00,68.4,64.0,29.94,ESE,103,5.8,5.8,86,0.00,SCT,,0.00,0.0,WeatherDisplay:10.37,2013-05-26 06:36:00,
2013-05-26 01:41:00,68.4,64.0,29.94,SE,134,10.4,10.4,86,0.00,SCT,,0.00,0.0,WeatherDisplay:10.37,2013-05-26 06:41:00,
2013-05-26 01:46:00,68.4,64.0,29.94,SE,140,1.2,1.9,86,0.00,SCT,,0.00,0.0,WeatherDisplay:10.37,2013-05-26 06:46:00,
2013-05-26 01:51:00,68.3,63.9,29.95,SE,135,6.9,6.9,86,0.00,SCT,,0.00,0.0,WeatherDisplay:10.37,2013-05-26 06:51:00,
2013-05-26 01:56:00,68.2,64.2,29.95,SE,136,9.2,9.2,87,0.00,SCT,,0.00,0.0,WeatherDisplay:10.37,2013-05-26 06:56:00,
2013-05-26 02:01:00,68.1,64.1,29.95,ESE,115,10.4,10.4,87,0.00,BKN,,0.00,0.0,WeatherDisplay:10.37,2013-05-26 07:01:00,
2013-05-26 02:06:00,68.1,64.1,29.95,South,171,3.5,3.5,87,0.00,BKN,,0.00,0.0,WeatherDisplay:10.37,2013-05-26 07:06:00,
2013-05-26 02:11:00,68.0,64.3,29.94,South,180,4.6,4.6,88,0.00,BKN,,0.00,0.0,WeatherDisplay:10.37,2013-05-26 07:11:00,
2013-05-26 02:16:00,67.9,63.9,29.94,SSE,153,3.5,4.7,87,0.00,BKN,,0.00,0.0,WeatherDisplay:10.37,2013-05-26 07:16:00,
2013-05-26 02:21:00,67.8,64.1,29.94,SE,138,3.5,3.5,88,0.00,BKN,,0.00,0.0,WeatherDisplay:10.37,2013-05-26 07:21:00,
2013-05-26 02:26:00,67.7,64.0,29.93,SSW,200,7.0,7.0,88,0.00,BKN,,0.00,0.0,WeatherDisplay:10.37,2013-05-26 07:26:00,
2013-05-26 02:31:00,67.6,63.9,29.93,East,96,8.1,8.1,88,0.00,BKN,,0.00,0.0,WeatherDisplay:10.37,2013-05-26 07:31:00,
2013-05-26 02:36:00,67.6,63.9,29.93,South,179,9.2,9.2,88,0.00,BKN,,0.00,0.0,WeatherDisplay:10.37,2013-05-26 07:36:00,
2013-05-26 02:41:00,67.5,63.8,29.94,ESE,117,9.2,9.2,88,0.00,BKN,,0.00,0.0,WeatherDisplay:10.37,2013-05-26 07:41:00,
2013-05-26 02:46:00,67.5,64.1,29.94,SSE,153,3.5,3.5,89,0.00,BKN,,0.00,0.0,WeatherDisplay:10.37,2013-05-26 07:46:00,
2013-05-26 02:51:00,67.4,64.0,29.94,SE,136,4.6,4.6,89,0.00,BKN,,0.00,0.0,WeatherDisplay:10.37,2013-05-26 07:51:00,
2013-05-26 02:56:00,67.3,63.9,29.94,SE,142,5.8,5.8,89,0.00,BKN,,0.00,0.0,WeatherDisplay:10.37,2013-05-26 07:56:00,
2013-05-26 03:01:00,67.2,63.8,29.93,SSE,165,3.0,3.0,89,0.00,BKN,,0.00,0.0,WeatherDisplay:10.37,2013-05-26 08:01:00,
2013-05-26 03:06:00,67.1,63.7,29.94,SSE,156,1.2,1.7,89,0.00,BKN,,0.00,0.0,WeatherDisplay:10.37,2013-05-26 08:06:00,
2013-05-26 03:11:00,67.0,63.6,29.93,SE,146,4.6,4.6,89,0.00,BKN,,0.00,0.0,WeatherDisplay:10.37,2013-05-26 08:11:00,
2013-05-26 03:16:00,66.9,63.9,29.93,SSE,154,2.3,2.3,90,0.00,BKN,,0.00,0.0,WeatherDisplay:10.37,2013-05-26 08:16:00,
2013-05-26 03:21:00,66.8,63.8,29.93,SE,134,3.0,3.0,90,0.00,BKN,,0.00,0.0,WeatherDisplay:10.37,2013-05-26 08:21:00,
2013-05-26 03:26:00,66.8,63.8,29.93,South,169,5.8,5.8,90,0.00,BKN,,0.00,0.0,WeatherDisplay:10.37,2013-05-26 08:26:00,
2013-05-26 03:31:00,66.7,63.7,29.93,SSE,150,3.5,3.5,90,0.00,BKN,,0.00,0.0,WeatherDisplay:10.37,2013-05-26 08:31:00,
2013-05-26 03:36:00,66.6,63.6,29.93,SSE,150,3.5,3.5,90,0.00,BKN,,0.00,0.0,WeatherDisplay:10.37,2013-05-26 08:36:00,
2013-05-26 03:41:00,66.6,63.6,29.93,SE,139,3.5,3.5,90,0.00,BKN,,0.00,0.0,WeatherDisplay:10.37,2013-05-26 08:41:00,
2013-05-26 03:46:00,66.5,63.5,29.93,SE,144,2.3,2.3,90,0.00,BKN,,0.00,0.0,WeatherDisplay:10.37,2013-05-26 08:46:00,
2013-05-26 03:51:00,66.5,63.5,29.93,South,187,3.5,3.5,90,0.00,BKN,,0.00,0.0,WeatherDisplay:10.37,2013-05-26 08:51:00,
2013-05-26 03:56:00,66.4,63.4,29.93,SSE,162,3.5,3.5,90,0.00,BKN,,0.00,0.0,WeatherDisplay:10.37,2013-05-26 08:56:00,
2013-05-26 04:01:00,66.4,63.4,29.93,SSW,196,3.5,3.5,90,0.00,BKN,,0.00,0.0,WeatherDisplay:10.37,2013-05-26 09:01:00,
2013-05-26 04:06:00,66.3,63.3,29.93,SE,129,5.0,5.0,90,0.00,BKN,,0.00,0.0,WeatherDisplay:10.37,2013-05-26 09:06:00,
2013-05-26 04:11:00,66.3,63.3,29.92,SSW,192,6.9,6.9,90,0.00,BKN,,0.00,0.0,WeatherDisplay:10.37,2013-05-26 09:11:00,
2013-05-26 04:16:00,66.3,63.3,29.92,SE,139,5.8,5.8,90,0.00,BKN,,0.00,0.0,WeatherDisplay:10.37,2013-05-26 09:16:00,
2013-05-26 04:21:00,66.2,63.2,29.92,South,170,2.3,2.3,90,0.00,BKN,,0.00,0.0,WeatherDisplay:10.37,2013-05-26 09:21:00,
2013-05-26 04:26:00,66.2,63.2,29.92,SE,140,4.0,4.0,90,0.00,BKN,,0.00,0.0,WeatherDisplay:10.37,2013-05-26 09:26:00,
2013-05-26 04:31:00,66.1,63.1,29.92,South,171,3.5,3.5,90,0.00,BKN,,0.00,0.0,WeatherDisplay:10.37,2013-05-26 09:31:00,
2013-05-26 04:36:00,66.1,63.1,29.92,SE,130,12.7,12.7,90,0.00,BKN,,0.00,0.0,WeatherDisplay:10.37,2013-05-26 09:36:00,
2013-05-26 04:41:00,66.1,63.4,29.92,South,177,3.5,3.5,91,0.00,BKN,,0.00,0.0,WeatherDisplay:10.37,2013-05-26 09:41:00,
2013-05-26 04:46:00,66.0,63.3,29.92,SSE,148,4.0,4.0,91,0.00,BKN,,0.00,0.0,WeatherDisplay:10.37,2013-05-26 09:46:00,
2013-05-26 04:51:00,66.0,63.3,29.93,SSE,165,4.0,4.0,91,0.00,BKN,,0.00,0.0,WeatherDisplay:10.37,2013-05-26 09:51:00,
2013-05-26 04:56:00,65.9,63.2,29.93,ESE,121,6.9,6.9,91,0.00,BKN,,0.00,0.0,WeatherDisplay:10.37,2013-05-26 09:56:00,
2013-05-26 05:01:00,65.9,63.2,29.93,SSE,155,3.5,3.5,91,0.00,SCT,,0.00,0.0,WeatherDisplay:10.37,2013-05-26 10:01:00,
2013-05-26 05:06:00,65.9,63.2,29.92,SE,135,4.6,4.6,91,0.00,SCT,,0.00,0.0,WeatherDisplay:10.37,2013-05-26 10:06:00,
2013-05-26 05:11:00,65.9,63.5,29.93,SSE,148,2.0,2.0,92,0.00,SCT,,0.00,0.0,WeatherDisplay:10.37,2013-05-26 10:11:00,
2013-05-26 05:16:00,65.9,63.5,29.92,SE,132,1.2,1.4,92,0.00,SCT,,0.00,0.0,WeatherDisplay:10.37,2013-05-26 10:16:00,
2013-05-26 05:21:00,65.9,63.5,29.92,SE,128,6.9,6.9,92,0.00,SCT,,0.00,0.0,WeatherDisplay:10.37,2013-05-26 10:21:00,
2013-05-26 05:26:00,65.9,63.5,29.92,SE,136,1.2,0.0,92,0.00,SCT,,0.00,0.0,WeatherDisplay:10.37,2013-05-26 10:26:00,
2013-05-26 05:31:00,65.9,63.5,29.92,SE,133,5.0,5.0,92,0.00,SCT,,0.00,0.0,WeatherDisplay:10.37,2013-05-26 10:31:00,
2013-05-26 05:36:00,66.0,63.6,29.92,SE,137,3.5,3.5,92,0.00,SCT,,0.00,0.0,WeatherDisplay:10.37,2013-05-26 10:36:00,
2013-05-26 05:41:00,66.1,63.7,29.92,SE,133,3.5,3.5,92,0.00,SCT,,0.00,0.0,WeatherDisplay:10.37,2013-05-26 10:41:00,
2013-05-26 05:46:00,66.1,63.7,29.92,South,173,6.9,6.9,92,0.00,SCT,,0.00,0.0,WeatherDisplay:10.37,2013-05-26 10:46:00,
2013-05-26 05:51:00,66.1,63.7,29.92,SSE,162,4.6,4.6,92,0.00,SCT,,0.00,0.0,WeatherDisplay:10.37,2013-05-26 10:51:00,
2013-05-26 05:56:00,66.1,63.7,29.92,SSE,159,5.8,5.8,92,0.00,SCT,,0.00,0.0,WeatherDisplay:10.37,2013-05-26 10:56:00,
2013-05-26 06:01:00,66.1,63.7,29.92,SE,144,1.2,2.8,92,0.00,OVC,,0.00,0.0,WeatherDisplay:10.37,2013-05-26 11:01:00,
2013-05-26 06:06:00,66.1,63.7,29.92,South,183,5.8,5.8,92,0.00,OVC,,0.00,0.0,WeatherDisplay:10.37,2013-05-26 11:06:00,
2013-05-26 06:11:00,66.0,63.6,29.92,SSE,153,5.0,5.0,92,0.00,OVC,,0.00,0.0,WeatherDisplay:10.37,2013-05-26 11:11:00,
2013-05-26 06:16:00,65.9,63.5,29.91,SE,137,4.6,4.6,92,0.00,OVC,,0.00,0.0,WeatherDisplay:10.37,2013-05-26 11:16:00,
2013-05-26 06:21:00,65.9,63.8,29.91,South,190,6.0,6.0,93,0.00,OVC,,0.00,7.0,WeatherDisplay:10.37,2013-05-26 11:21:00,
2013-05-26 06:26:00,65.8,63.7,29.91,SW,219,5.8,5.8,93,0.00,OVC,,0.00,9.0,WeatherDisplay:10.37,2013-05-26 11:26:00,
2013-05-26 06:31:00,65.9,63.8,29.91,SSW,213,8.1,8.1,93,0.00,OVC,,0.00,12.0,WeatherDisplay:10.37,2013-05-26 11:31:00,
2013-05-26 06:36:00,65.9,63.8,29.91,South,178,8.1,8.1,93,0.00,OVC,,0.00,16.0,WeatherDisplay:10.37,2013-05-26 11:36:00,
2013-05-26 06:41:00,66.0,63.9,29.91,SSW,194,8.1,8.1,93,0.00,OVC,,0.00,19.0,WeatherDisplay:10.37,2013-05-26 11:41:00,
2013-05-26 06:46:00,66.0,63.9,29.91,SW,217,7.0,7.0,93,0.00,OVC,,0.00,21.0,WeatherDisplay:10.37,2013-05-26 11:46:00,
2013-05-26 06:51:00,66.1,64.0,29.92,South,169,4.6,4.6,93,0.00,BKN,,0.00,19.0,WeatherDisplay:10.37,2013-05-26 11:51:00,
2013-05-26 06:56:00,66.2,64.1,29.92,SSE,150,8.1,8.1,93,0.00,BKN,,0.00,26.0,WeatherDisplay:10.37,2013-05-26 11:56:00,
2013-05-26 07:01:00,66.2,64.1,29.92,ENE,73,9.2,9.2,93,0.00,BKN,,0.00,23.0,WeatherDisplay:10.37,2013-05-26 12:01:00,
2013-05-26 07:06:00,66.2,64.1,29.92,SSW,195,3.5,3.5,93,0.00,BKN,,0.00,21.0,WeatherDisplay:10.37,2013-05-26 12:06:00,
2013-05-26 07:11:00,66.3,64.2,29.92,SE,137,5.0,5.0,93,0.00,OVC,,0.00,25.0,WeatherDisplay:10.37,2013-05-26 12:11:00,
2013-05-26 07:16:00,66.4,64.3,29.92,SSE,154,5.8,5.8,93,0.00,OVC,,0.00,28.0,WeatherDisplay:10.37,2013-05-26 12:16:00,
2013-05-26 07:21:00,66.4,64.3,29.91,SE,126,4.0,4.0,93,0.00,OVC,,0.00,32.0,WeatherDisplay:10.37,2013-05-26 12:21:00,
2013-05-26 07:26:00,66.4,64.3,29.90,ESE,114,8.1,8.1,93,0.00,OVC,,0.00,35.0,WeatherDisplay:10.37,2013-05-26 12:26:00,
2013-05-26 07:31:00,66.5,64.4,29.91,SE,134,8.1,8.1,93,0.00,OVC,,0.00,35.0,WeatherDisplay:10.37,2013-05-26 12:31:00,
2013-05-26 07:36:00,66.6,64.5,29.91,SE,135,8.0,8.0,93,0.00,OVC,,0.00,30.0,WeatherDisplay:10.37,2013-05-26 12:36:00,
2013-05-26 07:41:00,66.7,64.6,29.90,SE,132,9.2,9.2,93,0.00,OVC,,0.00,44.0,WeatherDisplay:10.37,2013-05-26 12:41:00,
2013-05-26 07:46:00,66.8,64.7,29.90,ESE,104,11.5,11.5,93,0.00,OVC,,0.00,37.0,WeatherDisplay:10.37,2013-05-26 12:46:00,
2013-05-26 07:51:00,66.8,64.7,29.91,SSW,199,11.5,11.5,93,0.00,OVC,,0.00,33.0,WeatherDisplay:10.37,2013-05-26 12:51:00,
2013-05-26 07:56:00,66.9,64.8,29.90,South,181,13.0,13.0,93,0.00,OVC,,0.00,35.0,WeatherDisplay:10.37,2013-05-26 12:56:00,
2013-05-26 08:01:00,67.0,64.9,29.90,SSE,163,11.5,11.5,93,0.00,OVC,,0.00,39.0,WeatherDisplay:10.37,2013-05-26 13:01:00,
2013-05-26 08:06:00,67.2,65.1,29.90,SE,138,6.9,6.9,93,0.00,OVC,,0.00,53.0,WeatherDisplay:10.37,2013-05-26 13:06:00,
2013-05-26 08:11:00,67.3,65.2,29.90,South,184,6.9,6.9,93,0.00,OVC,,0.00,56.0,WeatherDisplay:10.37,2013-05-26 13:11:00,
2013-05-26 08:16:00,67.4,65.3,29.90,SE,144,5.8,5.8,93,0.00,OVC,,0.00,65.0,WeatherDisplay:10.37,2013-05-26 13:16:00,
2013-05-26 08:21:00,67.6,65.5,29.90,SSE,168,10.0,10.0,93,0.00,OVC,,0.00,62.0,WeatherDisplay:10.37,2013-05-26 13:21:00,
2013-05-26 08:26:00,67.8,65.7,29.90,SE,140,6.9,6.9,93,0.00,OVC,,0.00,60.0,WeatherDisplay:10.37,2013-05-26 13:26:00,
2013-05-26 08:31:00,67.9,65.8,29.90,SSE,162,6.9,6.9,93,0.00,OVC,,0.00,67.0,WeatherDisplay:10.37,2013-05-26 13:31:00,
2013-05-26 08:36:00,68.1,66.0,29.90,South,171,9.2,9.2,93,0.00,OVC,,0.00,65.0,WeatherDisplay:10.37,2013-05-26 13:36:00,
2013-05-26 08:41:00,68.2,66.1,29.90,SSW,197,8.1,8.1,93,0.00,OVC,,0.00,69.0,WeatherDisplay:10.37,2013-05-26 13:41:00,
2013-05-26 08:46:00,68.3,65.9,29.90,South,191,4.6,4.6,92,0.00,OVC,,0.00,70.0,WeatherDisplay:10.37,2013-05-26 13:46:00,
2013-05-26 08:51:00,68.5,66.1,29.91,SSE,163,9.2,9.2,92,0.00,OVC,,0.00,70.0,WeatherDisplay:10.37,2013-05-26 13:51:00,
2013-05-26 08:56:00,68.6,66.2,29.91,South,178,10.4,10.4,92,0.00,OVC,,0.00,65.0,WeatherDisplay:10.37,2013-05-26 13:56:00,
2013-05-26 09:01:00,68.7,66.3,29.91,ESE,119,9.2,9.2,92,0.00,OVC,,0.00,74.0,WeatherDisplay:10.37,2013-05-26 14:01:00,
2013-05-26 09:06:00,68.8,66.4,29.91,East,100,13.8,13.8,92,0.00,OVC,,0.00,69.0,WeatherDisplay:10.37,2013-05-26 14:06:00,
2013-05-26 09:11:00,68.9,66.5,29.90,SSE,162,10.4,10.4,92,0.00,OVC,,0.00,83.0,WeatherDisplay:10.37,2013-05-26 14:11:00,
2013-05-26 09:16:00,69.0,66.6,29.90,SSE,155,11.5,11.5,92,0.00,OVC,,0.00,98.0,WeatherDisplay:10.37,2013-05-26 14:16:00,
2013-05-26 09:21:00,69.2,66.8,29.90,SSW,198,5.8,5.8,92,0.00,OVC,,0.00,113.0,WeatherDisplay:10.37,2013-05-26 14:21:00,
2013-05-26 09:26:00,69.3,66.9,29.90,South,184,10.4,10.4,92,0.00,OVC,,0.00,118.0,WeatherDisplay:10.37,2013-05-26 14:26:00,
2013-05-26 09:31:00,69.4,67.0,29.90,SSE,152,11.5,11.5,92,0.00,OVC,,0.00,113.0,WeatherDisplay:10.37,2013-05-26 14:31:00,
2013-05-26 09:36:00,69.6,66.9,29.90,SE,140,12.7,12.7,91,0.00,OVC,,0.00,116.0,WeatherDisplay:10.37,2013-05-26 14:36:00,
2013-05-26 09:41:00,69.7,67.0,29.90,SSE,151,9.2,9.2,91,0.00,OVC,,0.00,107.0,WeatherDisplay:10.37,2013-05-26 14:41:00,
2013-05-26 09:46:00,69.9,67.2,29.90,SE,146,10.4,10.4,91,0.00,OVC,,0.00,107.0,WeatherDisplay:10.37,2013-05-26 14:46:00,
2013-05-26 09:51:00,69.9,67.2,29.90,South,178,11.5,11.5,91,0.00,OVC,,0.00,105.0,WeatherDisplay:10.37,2013-05-26 14:51:00,
2013-05-26 09:56:00,70.0,67.3,29.90,SE,126,7.0,7.0,91,0.00,OVC,,0.00,100.0,WeatherDisplay:10.37,2013-05-26 14:56:00,
2013-05-26 10:01:00,70.1,67.3,29.90,South,182,8.0,8.0,91,0.00,OVC,,0.00,116.0,WeatherDisplay:10.37,2013-05-26 15:01:00,
2013-05-26 10:06:00,70.2,67.1,29.90,South,175,15.0,15.0,90,0.00,OVC,,0.00,113.0,WeatherDisplay:10.37,2013-05-26 15:06:00,
2013-05-26 10:11:00,70.3,67.2,29.90,SSE,164,12.7,12.7,90,0.00,OVC,,0.00,137.0,WeatherDisplay:10.37,2013-05-26 15:11:00,
2013-05-26 10:16:00,70.4,67.3,29.90,East,98,11.5,11.5,90,0.00,OVC,,0.00,116.0,WeatherDisplay:10.37,2013-05-26 15:16:00,
2013-05-26 10:21:00,70.6,67.5,29.90,South,189,11.5,11.5,90,0.00,OVC,,0.00,107.0,WeatherDisplay:10.37,2013-05-26 15:21:00,
2013-05-26 10:26:00,70.6,67.5,29.91,SSE,165,12.0,12.0,90,0.00,OVC,,0.00,100.0,WeatherDisplay:10.37,2013-05-26 15:26:00,
2013-05-26 10:31:00,70.7,67.6,29.91,South,188,8.1,8.1,90,0.00,OVC,,0.00,81.0,WeatherDisplay:10.37,2013-05-26 15:31:00,
2013-05-26 10:36:00,70.8,67.7,29.91,SSE,160,5.8,5.8,90,0.00,OVC,,0.00,84.0,WeatherDisplay:10.37,2013-05-26 15:36:00,
2013-05-26 10:41:00,70.8,67.7,29.91,SSE,155,8.1,8.1,90,0.00,OVC,,0.00,70.0,WeatherDisplay:10.37,2013-05-26 15:41:00,
2013-05-26 10:46:00,70.9,67.8,29.91,SW,230,4.6,4.6,90,0.00,OVC,,0.00,104.0,WeatherDisplay:10.37,2013-05-26 15:46:00,
2013-05-26 10:51:00,71.0,67.9,29.91,SW,232,4.6,4.6,90,0.00,OVC,,0.00,84.0,WeatherDisplay:10.37,2013-05-26 15:51:00,
2013-05-26 10:56:00,71.1,68.0,29.91,SE,144,8.1,8.1,90,0.00,OVC,,0.00,111.0,WeatherDisplay:10.37,2013-05-26 15:56:00,
2013-05-26 11:01:00,71.2,67.8,29.91,South,188,18.4,18.4,89,0.00,OVC,,0.00,83.0,WeatherDisplay:10.37,2013-05-26 16:01:00,
2013-05-26 11:06:00,71.3,68.2,29.91,SSW,212,8.1,8.1,90,0.00,OVC,,0.00,113.0,WeatherDisplay:10.37,2013-05-26 16:06:00,
2013-05-26 11:11:00,71.4,68.0,29.91,SSW,205,11.5,11.5,89,0.00,OVC,,0.00,88.0,WeatherDisplay:10.37,2013-05-26 16:11:00,
2013-05-26 11:16:00,71.5,68.1,29.91,SSW,194,12.7,12.7,89,0.00,OVC,,0.00,148.0,WeatherDisplay:10.37,2013-05-26 16:16:00,
2013-05-26 11:21:00,71.6,68.2,29.91,SE,138,8.1,8.1,89,0.00,OVC,,0.00,90.0,WeatherDisplay:10.37,2013-05-26 16:21:00,
2013-05-26 11:26:00,71.7,68.3,29.91,South,185,9.2,9.2,89,0.00,OVC,,0.00,95.0,WeatherDisplay:10.37,2013-05-26 16:26:00,
2013-05-26 11:31:00,71.8,68.4,29.91,SSE,161,6.9,6.9,89,0.00,OVC,,0.00,97.0,WeatherDisplay:10.37,2013-05-26 16:31:00,
2013-05-26 11:36:00,71.9,68.5,29.91,South,188,6.9,6.9,89,0.00,OVC,,0.00,120.0,WeatherDisplay:10.37,2013-05-26 16:36:00,
2013-05-26 11:41:00,72.0,68.2,29.91,SW,215,10.4,10.4,88,0.00,OVC,,0.00,130.0,WeatherDisplay:10.37,2013-05-26 16:41:00,
2013-05-26 11:46:00,72.1,68.3,29.91,SSE,149,9.2,9.2,88,0.00,OVC,,0.00,160.0,WeatherDisplay:10.37,2013-05-26 16:46:00,
2013-05-26 11:51:00,72.3,68.5,29.91,SSW,211,10.4,10.4,88,0.00,OVC,,0.00,134.0,WeatherDisplay:10.37,2013-05-26 16:51:00,
2013-05-26 11:56:00,72.5,68.4,29.91,SSE,167,6.9,6.9,87,0.00,OVC,,0.00,146.0,WeatherDisplay:10.37,2013-05-26 16:56:00,
2013-05-26 12:01:00,72.7,68.9,29.91,South,169,5.8,5.8,88,0.00,OVC,,0.00,193.0,WeatherDisplay:10.37,2013-05-26 17:01:00,
2013-05-26 12:06:00,72.9,68.8,29.91,South,174,19.6,19.6,87,0.00,OVC,,0.00,241.0,WeatherDisplay:10.37,2013-05-26 17:06:00,
2013-05-26 12:11:00,73.1,69.0,29.90,SE,140,16.1,16.1,87,0.00,OVC,,0.00,258.0,WeatherDisplay:10.37,2013-05-26 17:11:00,
2013-05-26 12:16:00,73.4,69.0,29.90,South,179,10.4,10.4,86,0.00,OVC,,0.00,348.0,WeatherDisplay:10.37,2013-05-26 17:16:00,
2013-05-26 12:21:00,73.9,69.1,29.90,South,170,15.0,15.0,85,0.00,OVC,,0.00,313.0,WeatherDisplay:10.37,2013-05-26 17:21:00,
2013-05-26 12:26:00,74.2,69.4,29.90,South,191,11.5,11.5,85,0.00,OVC,,0.00,322.0,WeatherDisplay:10.37,2013-05-26 17:26:00,
2013-05-26 12:31:00,74.6,69.4,29.90,East,97,10.4,10.4,84,0.00,OVC,,0.00,304.0,WeatherDisplay:10.37,2013-05-26 17:31:00,
2013-05-26 12:36:00,74.9,69.7,29.90,South,171,13.8,13.8,84,0.00,OVC,,0.00,418.0,WeatherDisplay:10.37,2013-05-26 17:36:00,
2013-05-26 12:41:00,75.2,69.7,29.89,SSW,201,8.1,8.1,83,0.00,OVC,,0.00,297.0,WeatherDisplay:10.37,2013-05-26 17:41:00,
2013-05-26 12:46:00,75.3,69.8,29.89,South,185,10.4,10.4,83,0.00,OVC,,0.00,339.0,WeatherDisplay:10.37,2013-05-26 17:46:00,
2013-05-26 12:51:00,75.6,70.1,29.89,WSW,250,10.4,10.4,83,0.00,OVC,,0.00,322.0,WeatherDisplay:10.37,2013-05-26 17:51:00,
2013-05-26 12:56:00,75.8,70.3,29.89,SSW,192,6.9,6.9,83,0.00,OVC,,0.00,315.0,WeatherDisplay:10.37,2013-05-26 17:56:00,
2013-05-26 13:01:00,75.9,70.0,29.89,SE,128,15.0,15.0,82,0.00,OVC,,0.00,316.0,WeatherDisplay:10.37,2013-05-26 18:01:00,
2013-05-26 13:06:00,76.1,70.2,29.89,ESE,102,11.5,11.5,82,0.00,OVC,,0.00,327.0,WeatherDisplay:10.37,2013-05-26 18:06:00,
2013-05-26 13:11:00,76.3,70.8,29.89,SSE,149,10.0,10.0,83,0.00,OVC,,0.00,383.0,WeatherDisplay:10.37,2013-05-26 18:11:00,
2013-05-26 13:16:00,76.9,70.6,29.88,SE,145,18.4,18.4,81,0.00,OVC,,0.00,1120.0,WeatherDisplay:10.37,2013-05-26 18:16:00,
2013-05-26 13:21:00,77.5,70.8,29.88,SSW,208,12.7,12.7,80,0.00,OVC,,0.00,403.0,WeatherDisplay:10.37,2013-05-26 18:21:00,
2013-05-26 13:26:00,77.7,71.0,29.88,SE,142,9.2,9.2,80,0.00,OVC,,0.00,297.0,WeatherDisplay:10.37,2013-05-26 18:26:00,
2013-05-26 13:31:00,77.7,71.0,29.88,South,188,6.9,6.9,80,0.00,OVC,,0.00,482.0,WeatherDisplay:10.37,2013-05-26 18:31:00,
2013-05-26 13:36:00,77.7,70.7,29.88,South,182,9.2,9.2,79,0.00,OVC,,0.00,350.0,WeatherDisplay:10.37,2013-05-26 18:36:00,
2013-05-26 13:41:00,78.1,71.1,29.88,SSW,200,4.6,5.8,79,0.00,OVC,,0.00,434.0,WeatherDisplay:10.37,2013-05-26 18:41:00,
2013-05-26 13:46:00,78.3,70.9,29.88,SE,134,11.5,11.5,78,0.00,OVC,,0.00,366.0,WeatherDisplay:10.37,2013-05-26 18:46:00,
2013-05-26 13:51:00,78.3,71.2,29.88,SSE,165,11.5,11.5,79,0.00,OVC,,0.00,468.0,WeatherDisplay:10.37,2013-05-26 18:51:00,
2013-05-26 13:56:00,78.5,71.1,29.88,SSW,195,15.0,15.0,78,0.00,OVC,,0.00,362.0,WeatherDisplay:10.37,2013-05-26 18:56:00,
2013-05-26 14:01:00,78.7,71.3,29.88,ESE,115,10.4,10.4,78,0.00,OVC,,0.00,336.0,WeatherDisplay:10.37,2013-05-26 19:01:00,
2013-05-26 14:06:00,78.8,71.0,29.87,South,184,10.4,10.4,77,0.00,OVC,,0.00,369.0,WeatherDisplay:10.37,2013-05-26 19:06:00,
2013-05-26 14:11:00,79.1,71.6,29.87,ESE,121,5.8,5.8,78,0.00,OVC,,0.00,322.0,WeatherDisplay:10.37,2013-05-26 19:11:00,
2013-05-26 14:16:00,79.3,71.8,29.87,ESE,119,5.8,5.8,78,0.00,OVC,,0.00,387.0,WeatherDisplay:10.37,2013-05-26 19:16:00,
2013-05-26 14:21:00,79.6,71.8,29.86,South,191,9.2,9.2,77,0.00,OVC,,0.00,394.0,WeatherDisplay:10.37,2013-05-26 19:21:00,
2013-05-26 14:26:00,79.9,71.3,29.86,SSE,155,12.7,12.7,75,0.00,OVC,,0.00,411.0,WeatherDisplay:10.37,2013-05-26 19:26:00,
2013-05-26 14:31:00,80.1,71.5,29.86,South,188,11.5,11.5,75,0.00,OVC,,0.00,371.0,WeatherDisplay:10.37,2013-05-26 19:31:00,
2013-05-26 14:36:00,80.2,71.6,29.86,South,173,4.6,4.6,75,0.00,OVC,,0.00,376.0,WeatherDisplay:10.37,2013-05-26 19:36:00,
2013-05-26 14:41:00,80.4,71.3,29.85,SE,146,18.4,18.4,74,0.00,OVC,,0.00,962.0,WeatherDisplay:10.37,2013-05-26 19:41:00,
2013-05-26 14:46:00,80.7,72.4,29.85,SE,130,8.1,8.1,76,0.00,OVC,,0.00,861.0,WeatherDisplay:10.37,2013-05-26 19:46:00,
2013-05-26 14:51:00,80.7,71.6,29.85,SSE,155,16.1,16.1,74,0.00,OVC,,0.00,315.0,WeatherDisplay:10.37,2013-05-26 19:51:00,
2013-05-26 14:56:00,80.5,71.4,29.85,South,190,11.5,11.5,74,0.00,OVC,,0.00,420.0,WeatherDisplay:10.37,2013-05-26 19:56:00,
2013-05-26 15:01:00,80.2,70.8,29.84,SSE,166,15.0,15.0,73,0.00,BKN,,0.00,283.0,WeatherDisplay:10.37,2013-05-26 20:01:00,
2013-05-26 15:06:00,80.0,71.4,29.84,SSW,193,15.0,15.0,75,0.00,BKN,,0.00,1002.0,WeatherDisplay:10.37,2013-05-26 20:06:00,
2013-05-26 15:11:00,80.7,71.6,29.84,SSW,192,8.1,8.1,74,0.00,BKN,,0.00,1025.0,WeatherDisplay:10.37,2013-05-26 20:11:00,
2013-05-26 15:16:00,81.4,71.5,29.84,ESE,112,9.2,9.2,72,0.00,BKN,,0.00,997.0,WeatherDisplay:10.37,2013-05-26 20:16:00,
2013-05-26 15:21:00,81.7,72.2,29.84,SSW,195,9.2,9.2,73,0.00,BKN,,0.00,457.0,WeatherDisplay:10.37,2013-05-26 20:21:00,
2013-05-26 15:26:00,81.9,72.0,29.84,SE,140,12.7,12.7,72,0.00,BKN,,0.00,343.0,WeatherDisplay:10.37,2013-05-26 20:26:00,
2013-05-26 15:31:00,81.3,71.0,29.84,South,177,16.1,16.1,71,0.00,BKN,,0.00,420.0,WeatherDisplay:10.37,2013-05-26 20:31:00,
2013-05-26 15:36:00,81.2,70.9,29.84,SSE,166,19.6,19.6,71,0.00,BKN,,0.00,343.0,WeatherDisplay:10.37,2013-05-26 20:36:00,
2013-05-26 15:41:00,81.4,71.9,29.84,SE,134,12.7,12.7,73,0.00,BKN,,0.00,640.0,WeatherDisplay:10.37,2013-05-26 20:41:00,
2013-05-26 15:46:00,81.4,71.1,29.83,SE,130,11.5,11.5,71,0.00,BKN,,0.00,269.0,WeatherDisplay:10.37,2013-05-26 20:46:00,
2013-05-26 15:51:00,81.6,71.7,29.83,South,180,12.7,12.7,72,0.00,BKN,,0.00,875.0,WeatherDisplay:10.37,2013-05-26 20:51:00,
2013-05-26 15:56:00,82.0,72.1,29.83,ESE,107,8.0,8.0,72,0.00,BKN,,0.00,422.0,WeatherDisplay:10.37,2013-05-26 20:56:00,
2013-05-26 16:01:00,82.2,71.0,29.83,SE,143,11.5,11.5,69,0.00,BKN,,0.00,496.0,WeatherDisplay:10.37,2013-05-26 21:01:00,
2013-05-26 16:06:00,81.8,71.1,29.83,South,184,8.1,8.1,70,0.00,BKN,,0.00,251.0,WeatherDisplay:10.37,2013-05-26 21:06:00,
2013-05-26 16:11:00,81.6,71.3,29.83,SE,144,9.2,9.2,71,0.00,SCT,,0.00,793.0,WeatherDisplay:10.37,2013-05-26 21:11:00,
2013-05-26 16:16:00,81.7,71.0,29.82,SE,142,20.7,20.7,70,0.00,SCT,,0.00,195.0,WeatherDisplay:10.37,2013-05-26 21:16:00,
2013-05-26 16:21:00,81.5,70.8,29.82,SSE,147,11.5,11.5,70,0.00,SCT,,0.00,188.0,WeatherDisplay:10.37,2013-05-26 21:21:00,
2013-05-26 16:26:00,81.4,71.1,29.82,SSE,165,12.7,12.7,71,0.00,SCT,,0.00,311.0,WeatherDisplay:10.37,2013-05-26 21:26:00,
2013-05-26 16:31:00,81.7,71.8,29.82,ESE,123,11.5,11.5,72,0.00,SCT,,0.00,717.0,WeatherDisplay:10.37,2013-05-26 21:31:00,
2013-05-26 16:36:00,82.1,71.8,29.82,ESE,121,16.1,16.1,71,0.00,SCT,,0.00,726.0,WeatherDisplay:10.37,2013-05-26 21:36:00,
2013-05-26 16:41:00,82.3,71.1,29.82,ESE,119,11.5,11.5,69,0.00,SCT,,0.00,684.0,WeatherDisplay:10.37,2013-05-26 21:41:00,
2013-05-26 16:46:00,82.3,71.1,29.82,SSE,149,20.7,20.7,69,0.00,SCT,,0.00,719.0,WeatherDisplay:10.37,2013-05-26 21:46:00,
2013-05-26 16:51:00,82.2,71.4,29.82,SE,139,12.7,12.7,70,0.00,SCT,,0.00,696.0,WeatherDisplay:10.37,2013-05-26 21:51:00,
2013-05-26 16:56:00,82.4,71.6,29.82,SSW,198,13.8,13.8,70,0.00,SCT,,0.00,738.0,WeatherDisplay:10.37,2013-05-26 21:56:00,
2013-05-26 17:01:00,82.8,71.6,29.82,SSE,147,19.6,19.6,69,0.00,SCT,,0.00,343.0,WeatherDisplay:10.37,2013-05-26 22:01:00,
2013-05-26 17:06:00,82.8,71.6,29.83,South,174,11.0,11.0,69,0.00,SCT,,0.00,466.0,WeatherDisplay:10.37,2013-05-26 22:06:00,
2013-05-26 17:11:00,82.7,71.5,29.82,SE,145,12.7,12.7,69,0.00,BKN,,0.00,258.0,WeatherDisplay:10.37,2013-05-26 22:11:00,
2013-05-26 17:16:00,82.6,71.0,29.82,SE,131,11.5,11.5,68,0.00,BKN,,0.00,573.0,WeatherDisplay:10.37,2013-05-26 22:16:00,
2013-05-26 17:21:00,82.6,71.0,29.82,South,185,4.6,4.6,68,0.00,BKN,,0.00,237.0,WeatherDisplay:10.37,2013-05-26 22:21:00,
2013-05-26 17:26:00,82.3,71.5,29.82,SSE,165,16.1,16.1,70,0.00,BKN,,0.00,237.0,WeatherDisplay:10.37,2013-05-26 22:26:00,
2013-05-26 17:31:00,82.1,71.3,29.82,SE,143,11.5,11.5,70,0.00,BKN,,0.00,601.0,WeatherDisplay:10.37,2013-05-26 22:31:00,
2013-05-26 17:36:00,82.2,71.4,29.82,SW,215,8.1,8.1,70,0.00,BKN,,0.00,680.0,WeatherDisplay:10.37,2013-05-26 22:36:00,
2013-05-26 17:41:00,82.1,70.9,29.82,SE,134,12.7,12.7,69,0.00,BKN,,0.00,241.0,WeatherDisplay:10.37,2013-05-26 22:41:00,
2013-05-26 17:46:00,81.8,71.1,29.82,SE,142,11.5,11.5,70,0.00,BKN,,0.00,343.0,WeatherDisplay:10.37,2013-05-26 22:46:00,
2013-05-26 17:51:00,81.4,70.7,29.81,ESE,107,9.2,9.2,70,0.00,BKN,,0.00,153.0,WeatherDisplay:10.37,2013-05-26 22:51:00,
2013-05-26 17:56:00,81.2,70.9,29.81,South,186,10.4,10.4,71,0.00,BKN,,0.00,137.0,WeatherDisplay:10.37,2013-05-26 22:56:00,
2013-05-26 18:01:00,81.3,71.0,29.81,SSE,159,10.4,10.4,71,0.00,BKN,,0.00,295.0,WeatherDisplay:10.37,2013-05-26 23:01:00,
2013-05-26 18:06:00,81.4,71.5,29.81,SE,128,6.9,6.9,72,0.00,BKN,,0.00,183.0,WeatherDisplay:10.37,2013-05-26 23:06:00,
2013-05-26 18:11:00,81.6,71.3,29.80,SSW,195,11.5,11.5,71,0.00,SCT,,0.00,176.0,WeatherDisplay:10.37,2013-05-26 23:11:00,
2013-05-26 18:16:00,81.6,70.9,29.80,SE,126,8.1,8.1,70,0.00,SCT,,0.00,91.0,WeatherDisplay:10.37,2013-05-26 23:16:00,
2013-05-26 18:21:00,81.2,70.5,29.80,South,181,15.0,15.0,70,0.00,SCT,,0.00,95.0,WeatherDisplay:10.37,2013-05-26 23:21:00,
2013-05-26 18:26:00,81.0,70.3,29.80,SSE,147,15.0,15.0,70,0.00,SCT,,0.00,100.0,WeatherDisplay:10.37,2013-05-26 23:26:00,
2013-05-26 18:31:00,80.8,70.5,29.80,ESE,123,8.1,8.1,71,0.00,SCT,,0.00,118.0,WeatherDisplay:10.37,2013-05-26 23:31:00,
2013-05-26 18:36:00,80.6,70.3,29.80,SE,144,6.9,6.9,71,0.00,SCT,,0.00,100.0,WeatherDisplay:10.37,2013-05-26 23:36:00,
2013-05-26 18:41:00,80.4,70.1,29.80,SSW,194,11.0,11.0,71,0.00,SCT,,0.00,83.0,WeatherDisplay:10.37,2013-05-26 23:41:00,
2013-05-26 18:46:00,80.4,70.5,29.80,SW,215,6.0,6.0,72,0.00,SCT,,0.00,95.0,WeatherDisplay:10.37,2013-05-26 23:46:00,
2013-05-26 18:51:00,80.5,70.6,29.80,South,189,9.2,9.2,72,0.00,SCT,,0.00,107.0,WeatherDisplay:10.37,2013-05-26 23:51:00,
2013-05-26 18:56:00,80.6,70.7,29.80,East,85,10.4,10.4,72,0.00,SCT,,0.00,107.0,WeatherDisplay:10.37,2013-05-26 23:56:00,
2013-05-26 19:01:00,80.5,71.0,29.80,SE,135,11.5,11.5,73,0.00,SCT,,0.00,84.0,WeatherDisplay:10.37,2013-05-27 00:01:00,
2013-05-26 19:06:00,80.4,70.5,29.80,SSE,150,8.0,8.1,72,0.00,SCT,,0.00,88.0,WeatherDisplay:10.37,2013-05-27 00:06:00,
2013-05-26 19:11:00,80.4,70.9,29.80,WSW,255,8.1,8.1,73,0.00,SCT,,0.00,86.0,WeatherDisplay:10.37,2013-05-27 00:11:00,
2013-05-26 19:16:00,80.2,70.8,29.80,SSW,196,11.5,11.5,73,0.00,SCT,,0.00,70.0,WeatherDisplay:10.37,2013-05-27 00:16:00,
2013-05-26 19:21:00,80.2,71.2,29.80,South,180,3.5,3.6,74,0.00,SCT,,0.00,65.0,WeatherDisplay:10.37,2013-05-27 00:21:00,
2013-05-26 19:26:00,80.0,70.6,29.80,ESE,121,8.1,8.1,73,0.00,SCT,,0.00,58.0,WeatherDisplay:10.37,2013-05-27 00:26:00,
2013-05-26 19:31:00,79.8,70.4,29.80,South,189,9.2,9.2,73,0.00,SCT,,0.00,53.0,WeatherDisplay:10.37,2013-05-27 00:31:00,
2013-05-26 19:36:00,79.8,70.8,29.80,East,98,11.5,11.5,74,0.00,SCT,,0.00,51.0,WeatherDisplay:10.37,2013-05-27 00:36:00,
2013-05-26 19:41:00,79.6,70.6,29.80,SSW,200,11.5,11.5,74,0.00,SCT,,0.00,49.0,WeatherDisplay:10.37,2013-05-27 00:41:00,
2013-05-26 19:46:00,79.5,70.5,29.80,SE,132,6.0,6.0,74,0.00,SCT,,0.00,40.0,WeatherDisplay:10.37,2013-05-27 00:46:00,
2013-05-26 19:51:00,79.3,70.3,29.80,SSW,194,6.9,6.9,74,0.00,SCT,,0.00,33.0,WeatherDisplay:10.37,2013-05-27 00:51:00,
2013-05-26 19:56:00,79.0,70.4,29.80,ESE,111,9.0,9.0,75,0.00,SCT,,0.00,35.0,WeatherDisplay:10.37,2013-05-27 00:56:00,
2013-05-26 20:01:00,78.7,70.1,29.81,ESE,103,7.0,7.0,75,0.00,SCT,,0.00,28.0,WeatherDisplay:10.37,2013-05-27 01:01:00,
2013-05-26 20:06:00,78.5,69.9,29.80,SE,134,9.2,9.2,75,0.00,SCT,,0.00,23.0,WeatherDisplay:10.37,2013-05-27 01:06:00,
2013-05-26 20:11:00,78.2,70.0,29.80,ESE,118,7.0,7.0,76,0.00,SCT,,0.00,23.0,WeatherDisplay:10.37,2013-05-27 01:11:00,
2013-05-26 20:16:00,78.0,69.8,29.80,SSE,157,3.5,3.5,76,0.00,SCT,,0.00,19.0,WeatherDisplay:10.37,2013-05-27 01:16:00,
2013-05-26 20:21:00,77.8,70.0,29.80,SE,145,9.2,9.2,77,0.00,SCT,,0.00,14.0,WeatherDisplay:10.37,2013-05-27 01:21:00,
2013-05-26 20:26:00,77.5,69.7,29.80,SE,131,4.0,4.6,77,0.00,SCT,,0.00,11.0,WeatherDisplay:10.37,2013-05-27 01:26:00,
2013-05-26 20:31:00,77.3,69.9,29.80,SSE,150,3.5,3.5,78,0.00,SCT,,0.00,7.0,WeatherDisplay:10.37,2013-05-27 01:31:00,
2013-05-26 20:36:00,77.1,69.7,29.80,ESE,123,9.2,9.2,78,0.00,SCT,,0.00,0.0,WeatherDisplay:10.37,2013-05-27 01:36:00,
2013-05-26 20:41:00,76.9,69.5,29.80,ENE,65,6.9,6.9,78,0.00,SCT,,0.00,0.0,WeatherDisplay:10.37,2013-05-27 01:41:00,
2013-05-26 20:46:00,76.7,69.7,29.80,SSE,157,8.1,8.1,79,0.00,SCT,,0.00,0.0,WeatherDisplay:10.37,2013-05-27 01:46:00,
2013-05-26 20:51:00,76.6,69.6,29.80,SSE,163,4.6,4.6,79,0.00,SCT,,0.00,0.0,WeatherDisplay:10.37,2013-05-27 01:51:00,
2013-05-26 20:56:00,76.5,69.9,29.80,SE,130,8.1,8.1,80,0.00,SCT,,0.00,0.0,WeatherDisplay:10.37,2013-05-27 01:56:00,
2013-05-26 21:01:00,76.3,69.7,29.80,South,186,3.5,3.5,80,0.00,SCT,,0.00,0.0,WeatherDisplay:10.37,2013-05-27 02:01:00,
2013-05-26 21:06:00,76.2,69.9,29.79,ESE,121,3.5,3.5,81,0.00,SCT,,0.00,0.0,WeatherDisplay:10.37,2013-05-27 02:06:00,
2013-05-26 21:11:00,76.0,69.7,29.79,SE,140,7.0,7.0,81,0.00,SCT,,0.00,0.0,WeatherDisplay:10.37,2013-05-27 02:11:00,
2013-05-26 21:16:00,75.8,69.6,29.80,SSE,156,9.0,9.0,81,0.00,SCT,,0.00,0.0,WeatherDisplay:10.37,2013-05-27 02:16:00,
2013-05-26 21:21:00,75.7,69.8,29.79,SE,132,3.5,3.5,82,0.00,SCT,,0.00,0.0,WeatherDisplay:10.37,2013-05-27 02:21:00,
2013-05-26 21:26:00,75.6,69.7,29.79,ESE,114,12.0,12.0,82,0.00,SCT,,0.00,0.0,WeatherDisplay:10.37,2013-05-27 02:26:00,
2013-05-26 21:31:00,75.5,69.6,29.79,SE,132,11.5,11.5,82,0.00,SCT,,0.00,0.0,WeatherDisplay:10.37,2013-05-27 02:31:00,
2013-05-26 21:36:00,75.4,69.9,29.79,South,175,5.8,5.8,83,0.00,SCT,,0.00,0.0,WeatherDisplay:10.37,2013-05-27 02:36:00,
2013-05-26 21:41:00,75.3,69.8,29.80,SE,139,4.6,4.6,83,0.00,SCT,,0.00,0.0,WeatherDisplay:10.37,2013-05-27 02:41:00,
2013-05-26 21:46:00,75.1,69.6,29.79,SSE,152,4.0,4.0,83,0.00,SCT,,0.00,0.0,WeatherDisplay:10.37,2013-05-27 02:46:00,
2013-05-26 21:51:00,75.0,69.5,29.80,SE,127,8.1,8.1,83,0.00,SCT,,0.00,0.0,WeatherDisplay:10.37,2013-05-27 02:51:00,
2013-05-26 21:56:00,74.9,69.7,29.80,SSW,200,9.2,9.2,84,0.00,SCT,,0.00,0.0,WeatherDisplay:10.37,2013-05-27 02:56:00,
2013-05-26 22:01:00,74.8,69.6,29.80,SE,139,3.5,3.5,84,0.00,SCT,,0.00,0.0,WeatherDisplay:10.37,2013-05-27 03:01:00,
2013-05-26 22:06:00,74.7,69.5,29.80,SSE,163,10.4,10.4,84,0.00,SCT,,0.00,0.0,WeatherDisplay:10.37,2013-05-27 03:06:00,
2013-05-26 22:11:00,74.6,69.4,29.80,SE,139,4.6,4.6,84,0.00,SCT,,0.00,0.0,WeatherDisplay:10.37,2013-05-27 03:11:00,
2013-05-26 22:16:00,74.5,69.3,29.80,SSE,150,8.1,8.1,84,0.00,SCT,,0.00,0.0,WeatherDisplay:10.37,2013-05-27 03:16:00,
2013-05-26 22:21:00,74.4,69.2,29.80,SE,128,10.4,10.4,84,0.00,SCT,,0.00,0.0,WeatherDisplay:10.37,2013-05-27 03:21:00,
2013-05-26 22:26:00,74.3,69.5,29.80,SE,130,11.5,11.5,85,0.00,SCT,,0.00,0.0,WeatherDisplay:10.37,2013-05-27 03:26:00,
2013-05-26 22:31:00,74.2,69.4,29.80,SE,128,10.4,10.4,85,0.00,SCT,,0.00,0.0,WeatherDisplay:10.37,2013-05-27 03:31:00,
2013-05-26 22:36:00,74.2,69.4,29.80,SE,128,8.1,8.1,85,0.00,SCT,,0.00,0.0,WeatherDisplay:10.37,2013-05-27 03:36:00,
2013-05-26 22:41:00,74.0,69.2,29.80,South,169,4.6,4.6,85,0.00,SCT,,0.00,0.0,WeatherDisplay:10.37,2013-05-27 03:41:00,
2013-05-26 22:46:00,74.0,69.2,29.80,SSE,153,12.7,12.7,85,0.00,SCT,,0.00,0.0,WeatherDisplay:10.37,2013-05-27 03:46:00,
2013-05-26 22:51:00,73.9,69.1,29.80,SE,146,11.5,11.5,85,0.00,SCT,,0.00,0.0,WeatherDisplay:10.37,2013-05-27 03:51:00,
2013-05-26 22:56:00,73.8,69.0,29.80,SE,145,5.8,5.8,85,0.00,SCT,,0.00,0.0,WeatherDisplay:10.37,2013-05-27 03:56:00,
2013-05-26 23:01:00,73.7,69.2,29.80,ESE,105,6.9,6.9,86,0.00,SCT,,0.00,0.0,WeatherDisplay:10.37,2013-05-27 04:01:00,
2013-05-26 23:06:00,73.7,69.2,29.80,ESE,121,3.5,3.5,86,0.00,SCT,,0.00,0.0,WeatherDisplay:10.37,2013-05-27 04:06:00,
2013-05-26 23:11:00,73.6,69.2,29.80,South,177,8.0,8.0,86,0.00,SCT,,0.00,0.0,WeatherDisplay:10.37,2013-05-27 04:11:00,
2013-05-26 23:16:00,73.5,69.1,29.80,East,98,9.2,9.2,86,0.00,SCT,,0.00,0.0,WeatherDisplay:10.37,2013-05-27 04:16:00,
2013-05-26 23:21:00,73.4,69.3,29.80,South,184,9.2,9.2,87,0.00,SCT,,0.00,0.0,WeatherDisplay:10.37,2013-05-27 04:21:00,
2013-05-26 23:26:00,73.3,69.2,29.80,ESE,115,4.6,4.6,87,0.00,SCT,,0.00,0.0,WeatherDisplay:10.37,2013-05-27 04:26:00,
2013-05-26 23:31:00,73.2,69.1,29.80,SE,135,11.5,11.5,87,0.00,SCT,,0.00,0.0,WeatherDisplay:10.37,2013-05-27 04:31:00,
2013-05-26 23:36:00,73.1,69.0,29.80,SE,146,4.6,4.6,87,0.00,SCT,,0.00,0.0,WeatherDisplay:10.37,2013-05-27 04:36:00,
2013-05-26 23:41:00,73.0,68.9,29.79,South,170,10.4,10.4,87,0.00,SCT,,0.00,0.0,WeatherDisplay:10.37,2013-05-27 04:41:00,
2013-05-26 23:46:00,73.0,68.9,29.80,South,171,13.0,13.0,87,0.00,SCT,,0.00,0.0,WeatherDisplay:10.37,2013-05-27 04:46:00,
2013-05-26 23:51:00,72.9,69.1,29.79,East,101,5.0,5.0,88,0.00,SCT,,0.00,0.0,WeatherDisplay:10.37,2013-05-27 04:51:00,
2013-05-26 23:56:00,72.8,69.0,29.79,SSE,156,11.5,11.5,88,0.00,SCT,,0.00,0.0,WeatherDisplay:10.37,2013-05-27 04:56:00,